Aerodrome Latest Weathers

# Airport/Station Observation Time (Local Time) Wind Visibility (km) Weather Temp. (°C) Dewdrop (°C) Air Pressure (hPa)
Direction (from) Speed (km/h)
1 Sultan Iskandar Muda - Banda Aceh 2017-06-24 19:00:00 WIB Tenggara 3.7 >=10 Berawan 28 22 1006
2 Cut Nyak Dien Nagan Raya - Meulaboh, NAD 2017-06-24 19:00:00 WIB Timur Laut 3.7 6.0 Berawan 24 24 1008
3 Malikussaleh - Lhokseumawe 2017-06-24 19:00:00 WIB Selatan 7.4 6.0 Cerah - berawan 25 23 1006
4 Binaka - Gunung Sitoli 2017-06-24 19:00:00 WIB Tenang 6.0 Cerah - berawan 28 26 1007
5 Kualanamu International Airport - Deli Serdang 2017-06-24 19:00:00 WIB Tenang 9.0 Berawan 29 25 1007
6 Dr. Ferdinand Lumban Tobing - Pinangsori (Sibolga) 2017-06-24 17:30:00 WIB Tenang 8.0 Berawan 29 24 1005
7 Aek Godang - Padang Sidempuan 2017-06-24 19:00:00 WIB Tenang 8.0 Berawan 28 22 1007
8 Minangkabau International Airport - Padang 2017-06-24 19:00:00 WIB Tenang 9.0 Berawan 27 25 1007
9 Sultan Syarif Kasim II - Pekanbaru 2017-06-24 19:00:00 WIB Tenang 9.0 Cerah - berawan 30 24 1006
10 Japura - Rengat 2017-06-24 18:00:00 WIB Tenang 8.0 Berawan 29 25 1006
11 Fatmawati Sukarno - Bengkulu 2017-06-24 18:30:00 WIB Tenggara 7.4 >=10 Cerah - berawan 28 24 1007
12 Sultan Thaha - Jambi 2017-06-24 19:00:00 WIB Tenggara 7.4 8.0 Cerah - berawan 27 25 1007
13 Hang Nadim - Batam 2017-06-24 19:00:00 WIB Tenang >=10 Cerah - berawan 28 24 1010
14 Raja Haji Fisabilillah - Tanjung Pinang 2017-06-24 19:00:00 WIB Tenang >=10 Cerah - berawan 28 25 1008
15 Sultan Mahmud Badaruddin II - Palembang 2017-06-24 19:00:00 WIB Tenggara 3.7 >=10 Cerah - berawan 26 23 1008
16 Radin Inten II - Lampung 2017-06-24 19:00:00 WIB Tenggara 7.4 8.0 Berawan 25 23 1009
17 Depati Amir - Pangkal Pinang 2017-06-24 19:00:00 WIB Tenang 7.0 Berawan 26 24 1008
18 Budiarto - Curug 2017-06-24 19:00:00 WIB Timur 14.8 >=10 Berawan 27 24 1009
19 Soekarno Hatta - Jakarta 2017-06-24 19:00:00 WIB Variabel 9.3 6.0 Berawan 26 24 1009
20 H.A.S. Hanandjoeddin - Tanjung Pandan 2017-06-24 19:00:00 WIB Timur 5.6 8.0 Berawan 26 24 1008
21 Supadio - Pontianak 2017-06-24 19:00:00 WIB Tenang 6.0 Berawan 28 24 1008
22 Rahadi Osman - Ketapang 2017-06-24 19:00:00 WIB Tenang 6.0 Cerah - berawan 27 24 1009
23 Ahmad Yani - Semarang 2017-06-24 19:18:00 WIB Tenang >=10 Hujan ringan 25 24 1011
24 Adi Soemarmo - Surakarta 2017-06-24 17:00:00 WIB Barat Laut 27.8 6.0 Berawan 26 22 1009
25 Susilo - Sintang 2017-06-24 19:00:00 WIB Tenggara 5.6 5.0 Berawan 26 25 1009
26 Iskandar - Pangkalan Bun 2017-06-24 19:00:00 WIB Tenang 8.0 Berawan 26 24 1010
27 Nanga Pinoh 2017-06-24 19:00:00 WIB Selatan 3.7 6.0 Berawan 25 24 1009
28 Juanda - Surabaya 2017-06-24 19:00:00 WIB Tenggara 9.3 8.0 Berawan 27 24 1010
29 Pangsuma - Putussibau 2017-06-24 19:00:00 WIB Selatan 9.3 2.0 Hujan 23 22 1011
30 Haji Asan - Sampit 2017-06-24 19:00:00 WIB Barat Laut 9.3 6.0 Hujan ringan 24 23 1009
31 Tjilik Riwut - Palangkaraya 2017-06-24 19:00:00 WIB Barat 3.7 9.0 Berawan 24 23 1010
32 Blimbingsari - Banyuwangi 2017-06-24 17:00:00 WIB Tenggara 14.8 7.0 Berawan 26 24 1009
33 Beringin - Muara Teweh 2017-06-24 19:00:00 WIB Tenang 5.0 Berawan 24 23 1010
34 Sanggu - Buntok 2017-06-24 19:00:00 WIB Tenang 7.0 Guntur di sekitarnya 26 24 1010
35 Syamsudin Noor - Banjarmasin 2017-06-24 20:00:00 WITA Tenggara 7.4 9.0 Berawan 25 24 1009
36 Ngurah Rai - Denpasar 2017-06-24 20:00:00 WITA Timur 14.8 >=10 Cerah - berawan 27 24 1010
37 Bandara Internasional Lombok - Praya 2017-06-24 20:00:00 WITA Variabel 3.7 7.0 Berawan 25 24 1011
38 Gusti Sjamsir Alam - Kota Baru 2017-06-24 20:00:00 WITA Tenang >=10 Berawan 26 24 1008
39 Sepinggan - Balikpapan 2017-06-24 20:00:00 WITA Variabel 3.7 9.0 Cerah - berawan 27 24 1008
40 Temindung - Samarinda 2017-06-24 20:00:00 WITA Timur 5.6 7.0 Cerah - berawan 28 23 1009
41 Tanjung Harapan - Tanjung Selor 2017-06-24 20:00:00 WITA Tenang 8.0 Cerah - berawan 28 25 1009
42 Sultan Muhammad Kaharuddin - Sumbawa Besar 2017-06-24 20:00:00 WITA Tenggara 5.6 >=10 Cerah - berawan 27 23 1009
43 Kalimarau - Tanjung Redeb 2017-06-24 20:00:00 WITA Tenggara 3.7 >=10 Berawan 26 25 1009
44 Juwata - Tarakan 2017-06-24 20:00:00 WITA Tenang 8.0 Berawan 27 25 1009
45 Nunukan 2017-06-24 18:00:00 WITA Timur 5.6 8.0 Cerah - berawan 29 25 1007
46 Sultan Muhammad Salahuddin - Bima 2017-06-24 19:00:00 WITA Selatan 5.6 6.0 Berawan 27 24 1009
47 Sultan Hasanuddin - Makassar 2017-06-24 19:00:00 WITA Variabel 3.7 8.0 Cerah - berawan 28 23 1008
48 Pongtiku - Tana Toraja 2017-06-24 20:00:00 WITA Tenggara 5.6 8.0 Berawan 21 20 1009
49 Komodo - Labuan Bajo 2017-06-24 20:00:00 WITA Tenang 7.0 Cerah - berawan 26 24 1010
50 Mutiara - Palu 2017-06-24 20:00:00 WITA Timur Laut 5.6 >=10 Cerah 26 24 1010
51 Umbu Mehang Kunda - Waingapu 2017-06-24 20:00:00 WITA Tenang 5.0 Cerah - berawan 27 23 1010
52 Andi Jemma - Masamba 2017-06-24 20:07:00 WITA Tenang 6.0 Hujan ringan 27 25 1011
53 Frans Sales Lega - Ruteng 2017-06-24 20:00:00 WITA Tenang 8.0 Cerah - berawan 19 18 1009
54 Kasiguncu - Poso 2017-06-24 20:00:00 WITA Tenang 8.0 Berawan 27 26 1009
55 Tardamu - Sabu 2017-06-24 20:00:00 WITA Tenggara 7.4 6.0 Cerah - berawan 27 24 1011
56 Fransiskus Xaverius Seda - Maumere 2017-06-24 20:00:00 WITA Tenang 8.0 Berawan 27 24 1011
57 Wolter Monginsidi - Kendari 2017-06-24 19:00:00 WITA Tenang 7.0 Cerah - berawan 25 25 1010
58 Beto Ambari - Bau Bau 2017-06-24 20:00:00 WITA Utara 5.6 5.0 Cerah - berawan 25 23 1012
59 Syukuran Aminuddin Amir - Luwuk 2017-06-24 20:00:00 WITA Barat 7.4 >=10 Cerah - berawan 26 24 1009
60 Djalaluddin - Gorontalo 2017-06-24 20:00:00 WITA Barat 3.7 9.0 Berawan 26 24 1007
61 Gewayantana - Larantuka 2017-06-24 18:00:00 WITA Tenang >=10 Berawan 28 24 1009
62 David Constantijn Saudale / Lekunik - Rote 2017-06-24 20:00:00 WITA Tenggara 5.6 >=10 Cerah - berawan 25 22 1016
63 El Tari - Kupang 2017-06-24 20:00:00 WITA Timur Laut 3.7 8.0 Berawan 25 21 1011
64 Mali Kalabahi - Alor 2017-06-24 20:00:00 WITA Barat 3.7 8.0 Cerah - berawan 26 23 1010
65 Sam Ratulangi - Manado 2017-06-24 20:00:00 WITA Variabel 1.9 >=10 Cerah - berawan 25 23 1009
66 Naha - Tahuna 2017-06-24 20:00:00 WITA Tenang 8.0 Cerah - berawan 24 24 1008
67 Emalamo - Sanana 2017-06-24 21:00:00 WIT Tenang >=10 Cerah - berawan 27 24 1010
68 Sultan Babullah - Ternate 2017-06-24 21:00:00 WIT Tenang >=10 Berawan 26 24 1010
69 Oesman Sadik - Labuha 2017-06-24 21:00:00 WIT Tenang 7.0 Hujan 26 24 1010
70 Gamar Malamo - Galela 2017-06-24 21:00:00 WIT Tenang >=10 Cerah - berawan 25 24 1009
71 Pattimura - Ambon 2017-06-24 21:00:00 WIT Barat Laut 14.8 >=10 Berawan 25 24 1010
72 Amahai 2017-06-24 21:00:00 WIT Tenang 9.0 Berawan 25 24 1010
73 Bandaneira - Banda 2017-06-24 21:00:00 WIT Selatan 9.3 8.0 Berawan 26 23 1009
74 Domine Eduard Osok (DEO) - Sorong Kota 2017-06-24 21:00:00 WIT Tenang 5.0 Berawan 26 25 1009
75 Mathilda Batlayeri - Saumlaki 2017-06-24 21:00:00 WIT Tenggara 9.3 >=10 Berawan 26 22 1011
76 Torea - Fak Fak 2017-06-24 21:00:00 WIT Timur Laut 11.1 5.0 Berawan 25 23 1011
77 Rendani - Manokwari 2017-06-24 20:00:00 WIT Tenang 7.0 Hujan ringan 26 23 1009
78 Nabire 2017-06-24 21:00:00 WIT Selatan 18.5 6.0 Guntur dan hujan ringan 27 25 1009
79 Frans Kaisiepo - Biak 2017-06-24 21:00:00 WIT Utara 3.7 >=10 Guntur di sekitarnya 26 24 1009
80 Moses Kilangin - Timika 2017-06-24 21:00:00 WIT Selatan 5.6 6.0 Guntur 26 25 1011
81 Mararena / Orai - Sarmi 2017-06-24 21:00:00 WIT Tenang >=10 Berawan 26 25 1010
82 Mopah - Merauke 2017-06-24 21:00:00 WIT Tenggara 9.3 7.0 Berawan 25 23 1011
83 Sentani - Jayapura 2017-06-24 21:00:00 WIT Barat Laut 3.7 9.0 Cerah - berawan 26 22 1009

Satellite Images

Wave Height Forecast

Wind Forecast

Forest Fires